Flag for Saudi Arabia Weather past 2 weeks in Qatif, Saudi Arabia

Now
91 °F

Sunny.


Feels Like: 88 °F
Forecast: 73 / 92 °F
Wind: 7 mph from North

Location: King Fahd International Airport


UV Index: 7 (High)

Visibility: 10 mi


Pressure: 29.77 "Hg

Humidity: 24%

Dew point: 50 °F

Location of QatifLocation

Historic Weather in Qatif

°F

Qatif temperature yesterday

Maximum temperature yesterday: 97 °F (at 2:00 PM)
Minimum temperature yesterday: 73 °F (at 3:00 AM)
Average temperature yesterday: 84 °F

Past Weeks' High & Low Weather Summary

 TemperatureHumidityPressure
High106 °F (Apr 18, 3:00 PM)83% (Apr 9, 6:00 AM)30.12 "Hg (Apr 9, 6:00 AM)
Low55 °F (Apr 8, 5:00 AM)8% (Apr 20, 4:00 PM)29.74 "Hg (Apr 18, 3:00 AM)
Average83 °F31%29.87 "Hg
* Reported Apr 6 5:00 PM — Apr 21 5:00 PM, Qatif, Weather by CustomWeather, © 2014

Note: Actual official high and low records may vary slightly from our data, if they occured in-between our weather recording intervals... More about our weather records

Advertising

Historic Weather Conditions — Data for Previous 24 hours

 ConditionsComfort  
Time TempWeatherWind HumidityBarometerVisibility
5:00 PM
Apr 21
95 °FSunny.10 mph16%29.77 "Hg10 mi
4:00 PM97 °FSunny.9 mph13%29.74 "Hg10 mi
3:00 PM99 °FSunny.9 mph14%29.77 "Hg10 mi
2:00 PM99 °FSunny.10 mph15%29.77 "Hg10 mi
1:00 PM99 °FSunny.10 mph13%29.77 "Hg10 mi
12:00 PM99 °FSunny.12 mph16%29.80 "Hg10 mi
11:00 AM97 °FSunny.9 mph18%29.80 "Hg10 mi
10:00 AM93 °FSunny.12 mph21%29.80 "Hg10 mi
9:00 AM88 °FSunny.12 mph24%29.80 "Hg10 mi
8:00 AM82 °FSunny.9 mph26%29.80 "Hg10 mi
7:00 AM77 °FSunny.6 mph24%29.77 "Hg10 mi
6:00 AM72 °FSunny.6 mph27%29.77 "Hg10 mi
5:00 AM72 °FClear.10 mph25%29.77 "Hg10 mi
4:00 AM73 °FClear.8 mph25%29.74 "Hg10 mi
3:00 AM73 °FClear.12 mph25%29.74 "Hg10 mi
2:00 AM73 °FClear.10 mph27%29.74 "Hg10 mi
1:00 AM72 °FClear.6 mph36%29.74 "Hg10 mi
12:00 AM73 °FClear.No wind33%29.77 "Hg10 mi
11:00 PM
Apr 20
75 °FClear.7 mph31%29.77 "Hg10 mi
10:00 PM79 °FClear.8 mph28%29.77 "Hg10 mi
9:00 PM81 °FClear.3 mph28%29.77 "Hg10 mi
8:00 PM81 °FClear.2 mph28%29.77 "Hg10 mi
7:00 PM86 °FClear.9 mph20%29.74 "Hg10 mi
6:00 PM90 °FSunny.12 mph20%29.77 "Hg10 mi
Weather by CustomWeather, © 2014

See weather overview